Location: Albuquerque Trailhead
(34.7934°N, 106.3736°W)
Time: 13:33:59
(UTC+00:00)

ADEOS II - Pass Details

Date: 20 June 2021
Orbit: 799 x 800 km, 98.6° (Epoch: 30 July)

Event Time Altitude Azimuth Distance (km) Brightness Sun altitude
Rises 09:52:31 0° 3° (N) 3,314 6.1 -19.8°
Reaches altitude 10° 09:54:59 10° 355° (N) 2,380 5.1 -19.5°
Maximum altitude 09:59:47 37° 289° (WNW) 1,225 2.8 -18.8°
Enters shadow 10:01:28 29° 251° (WSW) 1,420 2.9 -18.6°
